Back to catalog

STARLINK-37466

AliveCommunicationsSSO
NORAD 69038·PAYLOAD·🇺🇸 United States

Launched May 6, 2026 from Vandenberg Space Force Base

Loading…

Next Passes (next 24 hours)

TLE

FreshSource: CelesTrak SupGP

Epoch: Sep 14, 2026, 21:31 UTC

1 69038C 26101P   26257.89701389  .00055366  00000+0  17192-2 0  2576
2 69038  97.2849 111.5465 0001821  95.6762 349.0820 15.33400601    17

Track STARLINK-37466 in real time with AllMySat

Download on the App Store